| time (UTC) | temp F | wind direction | speed knots | gust knots | rain 1hr in | rain 24hr in | rain mn in | humidity % | barometer mb |
| 20260906111530 | 0 | 0.0 | 0.0 | 0.00 | 0.00 | 0.00 | 1015.6 | ||
| 20260906110020 | 0 | 0.0 | 0.0 | 0.00 | 0.00 | 0.00 | 1015.2 | ||
| 20260906104513 | 0 | 0.0 | 0.0 | 0.00 | 0.00 | 0.00 | 1015.2 | ||
| 20260906103013 | 0 | 0.0 | 0.0 | 0.00 | 0.00 | 0.00 | 1015.0 | ||
| 20260906101536 | 0 | 51 | 0.0 | 0.9 | 0.00 | 0.00 | 0.00 | 1014.8 | |
| 20260906100035 | 69 | 62 | 0.0 | 1.7 | 0.00 | 0.00 | 0.00 | 91 | 1014.8 |
| 20260906094502 | 69 | 62 | 0.0 | 1.7 | 0.00 | 0.00 | 0.00 | 91 | 1014.9 |
| 20260906093059 | 69 | 51 | 0.0 | 0.0 | 0.00 | 0.00 | 0.00 | 91 | 1014.7 |
| 20260906091556 | 70 | 51 | 0.0 | 1.7 | 0.00 | 0.00 | 0.00 | 91 | 1014.6 |
| 20260906090055 | 70 | 58 | 0.0 | 0.0 | 0.00 | 0.00 | 0.00 | 90 | 1014.6 |
| 20260906084556 | 71 | 58 | 0.0 | 0.0 | 0.00 | 0.00 | 0.00 | 90 | 1014.5 |
| 20260906083051 | 71 | 58 | 0.0 | 0.0 | 0.00 | 0.00 | 0.00 | 90 | 1014.6 |
| 20260906081548 | 71 | 58 | 0.0 | 0.9 | 0.00 | 0.00 | 0.00 | 90 | 1014.7 |
| 20260906080048 | 71 | 62 | 0.0 | 0.9 | 0.00 | 0.00 | 0.00 | 89 | 1014.7 |
| 20260906074545 | 72 | 59 | 0.0 | 2.6 | 0.00 | 0.00 | 0.00 | 89 | 1014.8 |
| 20260906073044 | 72 | 66 | 0.9 | 2.6 | 0.00 | 0.00 | 0.00 | 89 | 1014.8 |
| 20260906071541 | 72 | 81 | 0.0 | 3.5 | 0.00 | 0.00 | 0.00 | 89 | 1014.7 |
| 20260906070040 | 72 | 91 | 0.9 | 3.5 | 0.00 | 0.00 | 0.00 | 89 | 1014.7 |
| 20260906064540 | 72 | 70 | 0.9 | 4.3 | 0.00 | 0.00 | 0.00 | 89 | 1014.8 |
| 20260906063039 | 72 | 58 | 0.9 | 6.1 | 0.00 | 0.00 | 0.00 | 89 | 1014.8 |
| 20260906061540 | 72 | 4 | 1.7 | 5.2 | 0.00 | 0.00 | 0.00 | 89 | 1014.8 |
| 20260906060038 | 72 | 43 | 2.6 | 6.1 | 0.00 | 0.00 | 0.00 | 89 | 1014.8 |
| 20260906054537 | 72 | 84 | 0.9 | 5.2 | 0.00 | 0.00 | 0.00 | 90 | 1014.6 |
| 20260906053030 | 72 | 80 | 3.5 | 7.0 | 0.00 | 0.00 | 0.00 | 89 | 1014.3 |
| 20260906051600 | 72 | 47 | 2.6 | 5.2 | 0.00 | 0.00 | 0.00 | 89 | 1014.2 |
| 20260906050057 | 72 | 224 | 1.7 | 5.2 | 0.00 | 0.00 | 0.00 | 90 | 1014.1 |
| 20260906044555 | 72 | 63 | 1.7 | 5.2 | 0.00 | 0.00 | 0.00 | 89 | 1014.0 |
| 20260906043052 | 72 | 37 | 3.5 | 9.6 | 0.00 | 0.00 | 0.00 | 89 | 1013.8 |
| 20260906041550 | 72 | 359 | 2.6 | 9.6 | 0.00 | 0.00 | 0.00 | 89 | 1013.8 |
| 20260906040049 | 72 | 14 | 3.5 | 8.7 | 0.00 | 0.00 | 0.00 | 88 | 1013.7 |
| 20260906034558 | 73 | 79 | 5.2 | 11.3 | 0.00 | 0.00 | 0.00 | 88 | 1013.6 |
| 20260906033046 | 73 | 76 | 5.2 | 13.9 | 0.00 | 0.00 | 0.00 | 88 | 1013.5 |
| 20260906031543 | 73 | 79 | 4.3 | 10.4 | 0.00 | 0.00 | 0.00 | 88 | 1013.5 |
| 20260906030044 | 73 | 83 | 3.5 | 9.6 | 0.00 | 0.00 | 0.00 | 88 | 1013.4 |
| 20260906024540 | 73 | 72 | 1.7 | 5.2 | 0.00 | 0.00 | 0.00 | 88 | 1013.4 |
| 20260906023037 | 73 | 99 | 3.5 | 10.4 | 0.00 | 0.00 | 0.00 | 88 | 1013.6 |
| 20260906021541 | 73 | 78 | 0.9 | 5.2 | 0.00 | 0.00 | 0.00 | 88 | 1013.6 |
| 20260906020036 | 73 | 333 | 1.7 | 7.8 | 0.00 | 0.00 | 0.00 | 88 | 1013.7 |
| 20260906014532 | 73 | 42 | 0.9 | 6.1 | 0.00 | 0.00 | 0.00 | 87 | 1013.6 |
| 20260906013031 | 72 | 60 | 1.7 | 7.0 | 0.00 | 0.00 | 0.00 | 87 | 1013.4 |
| 20260906011529 | 72 | 311 | 0.9 | 6.1 | 0.00 | 0.00 | 0.00 | 88 | 1013.2 |
| 20260906010026 | 72 | 86 | 1.7 | 7.0 | 0.00 | 0.00 | 0.00 | 87 | 1013.0 |
| 20260906004523 | 72 | 347 | 0.9 | 10.4 | 0.00 | 0.00 | 0.00 | 87 | 1012.9 |
| 20260906003021 | 72 | 88 | 0.9 | 5.2 | 0.00 | 0.00 | 0.00 | 86 | 1012.8 |
| 20260906001539 | 73 | 35 | 1.7 | 8.7 | 0.00 | 0.00 | 0.00 | 86 | 1012.9 |
| 20260906000019 | 73 | 68 | 1.7 | 4.3 | 0.00 | 0.00 | 0.00 | 86 | 1012.8 |
| 20260905234515 | 73 | 77 | 3.5 | 10.4 | 0.00 | 0.00 | 0.00 | 87 | 1012.7 |
| 20260905233015 | 74 | 77 | 2.6 | 12.2 | 0.00 | 0.00 | 0.00 | 86 | 1012.6 |
| 20260905231515 | 75 | 219 | 0.9 | 7.0 | 0.00 | 0.00 | 0.00 | 84 | 1012.4 |
| 20260905230007 | 75 | 86 | 4.3 | 12.2 | 0.00 | 0.00 | 0.00 | 84 | 1012.3 |
| 20260905224502 | 76 | 69 | 2.6 | 10.4 | 0.00 | 0.00 | 0.00 | 83 | 1012.2 |
| 20260905223100 | 76 | 85 | 4.3 | 7.8 | 0.00 | 0.00 | 0.00 | 82 | 1012.3 |
| 20260905221602 | 77 | 64 | 2.6 | 6.1 | 0.00 | 0.00 | 0.00 | 81 | 1012.3 |
| 20260905220059 | 77 | 91 | 4.3 | 6.1 | 0.00 | 0.00 | 0.00 | 82 | 1012.3 |
| 20260905214557 | 76 | 63 | 0.0 | 7.0 | 0.00 | 0.00 | 0.00 | 84 | 1012.3 |
| 20260905213053 | 77 | 82 | 0.0 | 5.2 | 0.00 | 0.00 | 0.00 | 83 | 1012.0 |
| 20260905211552 | 77 | 269 | 1.7 | 6.1 | 0.00 | 0.00 | 0.00 | 82 | 1012.1 |
| 20260905210107 | 77 | 69 | 1.7 | 7.8 | 0.00 | 0.00 | 0.00 | 81 | 1012.0 |
| 20260905204548 | 78 | 65 | 2.6 | 8.7 | 0.00 | 0.00 | 0.00 | 80 | 1011.9 |
| 20260905203046 | 78 | 63 | 1.7 | 7.8 | 0.00 | 0.00 | 0.00 | 81 | 1012.1 |
| 20260905201544 | 79 | 302 | 1.7 | 8.7 | 0.00 | 0.00 | 0.00 | 80 | 1012.1 |
| 20260905200108 | 81 | 296 | 1.7 | 7.8 | 0.00 | 0.00 | 0.00 | 78 | 1012.1 |
| 20260905194539 | 82 | 71 | 4.3 | 10.4 | 0.00 | 0.00 | 0.00 | 75 | 1012.1 |
| 20260905193016 | 81 | 60 | 3.5 | 7.8 | 0.00 | 0.00 | 0.00 | 75 | 1012.1 |
| 20260905191508 | 81 | 327 | 1.7 | 9.6 | 0.00 | 0.00 | 0.00 | 77 | 1012.3 |
| 20260905190005 | 82 | 96 | 4.3 | 11.3 | 0.00 | 0.00 | 0.00 | 75 | 1012.1 |
| 20260905184504 | 81 | 309 | 1.7 | 9.6 | 0.00 | 0.00 | 0.00 | 77 | 1012.2 |
| 20260905183002 | 81 | 28 | 3.5 | 9.6 | 0.00 | 0.00 | 0.00 | 76 | 1012.1 |
| 20260905181600 | 82 | 81 | 3.5 | 7.8 | 0.00 | 0.00 | 0.00 | 73 | 1012.0 |
| 20260905180056 | 83 | 350 | 3.5 | 7.8 | 0.00 | 0.00 | 0.00 | 72 | 1012.1 |
| 20260905174555 | 84 | 49 | 1.7 | 7.0 | 0.00 | 0.00 | 0.00 | 71 | 1012.1 |
| 20260905173054 | 84 | 71 | 1.7 | 7.8 | 0.00 | 0.00 | 0.00 | 72 | 1012.0 |
| 20260905171550 | 83 | 88 | 4.3 | 9.6 | 0.00 | 0.00 | 0.00 | 75 | 1012.0 |
| 20260905170045 | 84 | 71 | 3.5 | 9.6 | 0.00 | 0.00 | 0.00 | 76 | 1012.1 |
| 20260905164545 | 85 | 297 | 2.6 | 7.0 | 0.00 | 0.00 | 0.00 | 70 | 1012.1 |
| 20260905163042 | 84 | 80 | 1.7 | 6.1 | 0.00 | 0.00 | 0.00 | 75 | 1012.2 |
| 20260905161542 | 84 | 49 | 2.6 | 7.0 | 0.00 | 0.00 | 0.00 | 76 | 1012.1 |
| 20260905160040 | 84 | 84 | 1.7 | 7.0 | 0.00 | 0.00 | 0.00 | 76 | 1012.1 |
| 20260905154540 | 83 | 56 | 2.6 | 7.8 | 0.00 | 0.00 | 0.00 | 77 | 1011.9 |
| 20260905153039 | 83 | 94 | 0.9 | 6.1 | 0.00 | 0.00 | 0.00 | 78 | 1011.9 |
| 20260905151538 | 83 | 276 | 1.7 | 8.7 | 0.00 | 0.00 | 0.00 | 77 | 1011.8 |
| 20260905150037 | 83 | 62 | 2.6 | 6.1 | 0.00 | 0.00 | 0.00 | 79 | 1011.7 |
| 20260905144544 | 82 | 12 | 0.9 | 7.8 | 0.00 | 0.00 | 0.00 | 81 | 1011.5 |
| 20260905143037 | 81 | 15 | 0.9 | 5.2 | 0.00 | 0.00 | 0.00 | 83 | 1011.3 |
| 20260905141534 | 83 | 72 | 0.9 | 3.5 | 0.00 | 0.00 | 0.00 | 81 | 1011.2 |
| 20260905140034 | 82 | 58 | 1.7 | 3.5 | 0.00 | 0.00 | 0.00 | 82 | 1011.1 |
| 20260905134537 | 81 | 354 | 1.7 | 4.3 | 0.00 | 0.00 | 0.00 | 84 | 1011.4 |
| 20260905133028 | 80 | 99 | 0.9 | 3.5 | 0.00 | 0.00 | 0.00 | 85 | 1011.4 |
| 20260905131527 | 78 | 314 | 0.0 | 2.6 | 0.00 | 0.00 | 0.00 | 88 | 1011.1 |
| 20260905130024 | 77 | 92 | 0.0 | 2.6 | 0.00 | 0.00 | 0.00 | 89 | 1011.0 |
| 20260905124524 | 77 | 68 | 0.0 | 4.3 | 0.00 | 0.00 | 0.00 | 89 | 1010.8 |
| 20260905123051 | 77 | 56 | 0.0 | 2.6 | 0.00 | 0.00 | 0.00 | 90 | 1010.8 |
| 20260905121520 | 76 | 22 | 0.0 | 1.7 | 0.00 | 0.00 | 0.00 | 90 | 1010.6 |
| 20260905120049 | 0 | 0.0 | 0.0 | 0.00 | 0.00 | 0.00 | 1010.4 | ||
| 20260905114547 | 0 | 0.0 | 0.0 | 0.00 | 0.00 | 0.00 | 1010.2 | ||
| 20260905113010 | 0 | 0.0 | 0.0 | 0.00 | 0.00 | 0.00 | 1010.0 |